This is the latest recevied weather packets stored in our database for station/object LU3HGB-WX. If no packets are shown the sender has not sent any weather packets the latest 10 day(s).
| Time | Temp. | Humidity | Pressure | Rain* | Wind** | Luminosity | Snow |
|---|---|---|---|---|---|---|---|
| 1777913260 | 21.67° C | 43% | 1011 hPa | 0 mm | - | 707 W/m² | - |
| 1777912961 | 21.67° C | 44% | 1011 hPa | 0 mm | - | 711 W/m² | - |
| 1777912662 | 21.67° C | 44% | 1011 hPa | 0 mm | - | 712 W/m² | - |
| 1777912360 | 21.67° C | 43% | 1011 hPa | 0 mm | - | 714 W/m² | - |
| 1777912060 | 21.11° C | 46% | 1011 hPa | 0 mm | - | 716 W/m² | - |
| 1777911760 | 21.11° C | 44% | 1011 hPa | 0 mm | - | 717 W/m² | - |
| 1777911460 | 20.56° C | 48% | 1011 hPa | 0 mm | - | 716 W/m² | - |
| 1777911164 | 20.56° C | 47% | 1011 hPa | 0 mm | - | 714 W/m² | - |
| 1777910860 | 20° C | 49% | 1011 hPa | 0 mm | - | 715 W/m² | - |
| 1777910560 | 20° C | 46% | 1012 hPa | 0 mm | - | 715 W/m² | - |
| 1777910260 | 19.44° C | 46% | 1012 hPa | 0 mm | - | 710 W/m² | - |
| 1777909959 | 19.44° C | 50% | 1012 hPa | 0 mm | - | 707 W/m² | - |
| 1777909660 | 18.89° C | 48% | 1012 hPa | 0 mm | - | 704 W/m² | - |
| 1777909360 | 18.89° C | 51% | 1012 hPa | 0 mm | - | 701 W/m² | - |
| 1777909060 | 18.89° C | 52% | 1012 hPa | 0 mm | - | 697 W/m² | - |
| 1777908760 | 18.89° C | 51% | 1012 hPa | 0 mm | - | 691 W/m² | - |
| 1777908459 | 18.33° C | 53% | 1012 hPa | 0 mm | - | 684 W/m² | - |
| 1777908159 | 18.33° C | 48% | 1012 hPa | 0 mm | - | 679 W/m² | - |
| 1777907860 | 18.33° C | 50% | 1012 hPa | 0 mm | - | 673 W/m² | - |
| 1777907560 | 18.33° C | 52% | 1012 hPa | 0 mm | - | 665 W/m² | - |
| 1777907260 | 17.78° C | 51% | 1012 hPa | 0 mm | - | 655 W/m² | - |
| 1777906960 | 17.78° C | 52% | 1012 hPa | 0 mm | - | 646 W/m² | - |
| 1777906660 | 17.22° C | 53% | 1012 hPa | 0 mm | - | 639 W/m² | - |
| 1777906360 | 17.22° C | 55% | 1012 hPa | 0 mm | - | 631 W/m² | - |
| 1777906060 | 16.67° C | 55% | 1012 hPa | 0 mm | - | 618 W/m² | - |
* Rain latest hour (hover to see other rain measurements)
** Current wind speed in m/s (hover to see current wind gust speed)